Regional Weather Roundup
Issued by NWS

Home | Current Version | Previous Version | Graphics & Text | Print | Product List | Glossary On
Versions: 1 2 3 4 5 6 7 8 9 10 11 12 13 14 15 16 17 18 19 20 21 22 23 24 25 26 27 28 29 30 31 32 33 34 35 36 37 38 39 40 41 42 43 44 45 46 47 48 49 50
537
ASUS45 KCYS 211910
RWRWY

WYOMING REGIONAL WEATHER ROUNDUP
NATIONAL WEATHER SERVICE CHEYENNE WY
1200 PM MST SAT JAN 21 2017

NOTE:  "FAIR" INDICATES FEW OR NO CLOUDS BELOW 12,000 FEET
WITH NO SIGNIFICANT WEATHER AND/OR OBSTRUCTIONS TO VISIBILITY.

WYZ001-212000-
YELLOWSTONE NATIONAL PARK

CITY           SKY/WX    TMP DP  RH WIND       PRES   REMARKS
LK YELLOWSTONE   N/A     16  12  84 CALM      29.43R
W YELLOWSTONE  NOT AVBL

$$
WYZ002>013-054>058-071-098>099-212000-
NORTHERN WYOMING

CITY           SKY/WX    TMP DP  RH WIND       PRES   REMARKS
JACKSON        FLURRIES  18  16  93 CALM      29.45R
CODY           FAIR      25  13  60 CALM      29.39F
GREYBULL       FAIR      13   8  81 N5        29.46S WCI   5
WORLAND        FAIR      15  12  88 N3        29.44R
SHERIDAN       FAIR      29  18  63 VRB3      29.40S
BUFFALO        FAIR      32  20  61 SE6       29.39S WCI  26
GILLETTE       FAIR      37  29  72 N3        29.39F
HULETT         FAIR      32  28  86 W3        29.41S
NEWCASTLE      CLOUDY    32  28  86 SE3       29.42F

$$
WYZ014>020-022>026-101>103-212000-
CENTRAL WYOMING

CITY           SKY/WX    TMP DP  RH WIND       PRES   REMARKS
BIG PINEY      CLOUDY    19  14  81 CALM      29.42R
PINEDALE       CLOUDY    21  14  73 NW7       29.42R WCI  13
DUBOIS         NOT AVBL
LANDER         FAIR      19  13  77 N3        29.40S
RIVERTON       FOG      N/A N/A N/A E3        29.42S VSB 1/4
CASPER         FAIR      33  21  61 W9        29.38F WCI  25
DOUGLAS        FAIR      34  25  69 W3        29.39F

$$
WYZ021-027>030-104>119-212000-
SOUTHERN WYOMING

CITY           SKY/WX    TMP DP  RH WIND       PRES   REMARKS
EVANSTON       LGT SNOW  19  15  84 SW8       29.45R VSB 1   WCI   9
ROCK SPRINGS   FOG       17  14  88 SW6       29.42R VSB 1/4 WCI   9
RAWLINS        CLOUDY    28  17  63 CALM      29.38S
LARAMIE        CLOUDY    21  14  74 SW3       29.35F
CHEYENNE       FAIR      38  17  42 SE9       29.37F WCI  31
TORRINGTON     FAIR      40  25  55 VRB5      29.39F

$$




USA.gov is the U.S. government's official web portal to all federal, state and local government web resources and services.